TimeEST,TemperatureF,Dew PointF,Humidity,Sea Level PressureIn,VisibilityMPH,Wind Direction,Wind SpeedMPH,Gust SpeedMPH,PrecipitationIn,Events,Conditions,WindDirDegrees,DateUTC
12:53 AM,28.0,19.0,69,30.19,10.0,Calm,Calm,-,N/A,,Clear,0,2013-02-26 05:53:00
1:53 AM,26.1,18.0,71,30.21,9.0,Calm,Calm,-,N/A,,Clear,0,2013-02-26 06:53:00
2:53 AM,27.0,19.0,72,30.19,9.0,Calm,Calm,-,N/A,,Clear,0,2013-02-26 07:53:00
3:53 AM,26.1,19.0,75,30.17,9.0,Calm,Calm,-,N/A,,Clear,0,2013-02-26 08:53:00
4:53 AM,26.1,19.9,78,30.17,9.0,Calm,Calm,-,N/A,,Clear,0,2013-02-26 09:53:00
5:53 AM,28.9,21.0,72,30.18,10.0,Calm,Calm,-,N/A,,Clear,0,2013-02-26 10:53:00
6:53 AM,30.0,21.9,72,30.17,10.0,Calm,Calm,-,N/A,,Clear,0,2013-02-26 11:53:00
7:53 AM,30.9,23.0,72,30.18,10.0,Calm,Calm,-,N/A,,Clear,0,2013-02-26 12:53:00
8:53 AM,34.0,25.0,70,30.18,10.0,ENE,3.5,-,N/A,,Clear,70,2013-02-26 13:53:00
9:53 AM,35.1,25.0,67,30.17,8.0,Calm,Calm,-,0.00,Rain,Light Rain,0,2013-02-26 14:53:00
10:53 AM,36.0,25.0,64,30.15,10.0,East,4.6,-,0.00,,Overcast,90,2013-02-26 15:53:00
11:53 AM,36.0,28.0,73,30.13,6.0,ESE,4.6,-,0.01,Rain,Light Rain,110,2013-02-26 16:53:00
12:10 PM,35.6,28.4,75,30.11,4.0,East,3.5,-,0.02,Rain,Light Rain,100,2013-02-26 17:10:00
12:53 PM,36.0,30.9,82,30.08,4.0,ENE,4.6,-,0.06,Rain,Light Rain,60,2013-02-26 17:53:00
1:53 PM,35.1,32.0,89,30.03,2.5,NE,6.9,-,0.04,Rain,Light Rain,50,2013-02-26 18:53:00
2:42 PM,35.6,33.8,93,29.96,2.0,NE,5.8,-,0.09,Rain,Light Rain,50,2013-02-26 19:42:00
2:53 PM,36.0,33.1,89,29.96,3.0,ENE,8.1,-,0.10,Rain,Light Rain,60,2013-02-26 19:53:00
3:53 PM,37.9,35.1,89,29.93,4.0,East,8.1,-,0.02,Rain,Light Rain,80,2013-02-26 20:53:00
4:21 PM,37.4,35.6,93,29.88,2.0,ENE,6.9,-,0.02,Rain,Light Rain,60,2013-02-26 21:21:00
4:53 PM,39.0,36.0,89,29.86,4.0,ENE,11.5,-,0.04,Rain,Light Rain,70,2013-02-26 21:53:00
5:53 PM,39.9,37.0,89,29.82,2.5,ENE,11.5,-,0.03,Rain,Light Rain,70,2013-02-26 22:53:00
6:18 PM,39.2,37.4,93,29.78,2.5,ENE,13.8,-,0.04,Rain,Rain,60,2013-02-26 23:18:00
6:24 PM,39.2,37.4,93,29.78,3.0,ENE,11.5,-,0.04,Rain,Light Rain,70,2013-02-26 23:24:00
6:53 PM,39.9,37.0,89,29.79,5.0,ENE,11.5,-,0.11,Rain,Light Rain,70,2013-02-26 23:53:00
7:53 PM,39.9,37.0,89,29.78,2.5,ENE,10.4,-,0.17,Rain,Rain,60,2013-02-27 00:53:00
8:08 PM,39.2,37.4,93,29.79,3.0,NE,3.5,-,0.05,Rain,Rain,40,2013-02-27 01:08:00
8:12 PM,39.2,37.4,93,29.78,2.5,Calm,Calm,-,0.07,Rain,Rain,0,2013-02-27 01:12:00
8:53 PM,39.9,37.0,89,29.79,3.0,NNW,5.8,-,0.18,Rain,Light Rain,340,2013-02-27 01:53:00
9:10 PM,39.2,37.4,93,29.76,2.5,North,8.1,-,0.03,Rain,Rain,10,2013-02-27 02:10:00
9:15 PM,39.2,37.4,93,29.76,3.0,North,10.4,-,0.04,Rain,Light Rain,10,2013-02-27 02:15:00
9:26 PM,37.4,35.6,93,29.72,3.0,NE,12.7,-,0.06,Rain,Light Rain,50,2013-02-27 02:26:00
9:42 PM,37.4,35.6,93,29.73,3.0,NNE,8.1,-,0.06,Rain,Light Rain,20,2013-02-27 02:42:00
9:53 PM,37.9,36.0,93,29.73,4.0,NNE,6.9,-,0.06,Rain,Light Rain,20,2013-02-27 02:53:00
10:50 PM,37.4,35.6,93,29.69,2.5,North,10.4,-,0.03,Rain,Light Rain,360,2013-02-27 03:50:00
10:53 PM,37.0,35.1,93,29.70,2.5,North,11.5,-,0.03,Rain,Light Rain,360,2013-02-27 03:53:00
11:53 PM,37.0,35.1,93,29.66,2.5,North,8.1,-,0.01,,Overcast,360,2013-02-27 04:53:00